This is the latest recevied weather packets stored in our database for station/object SP1BMW-13. If no packets are shown the sender has not sent any weather packets the latest 10 day(s).
| Time | Temp. | Humidity | Pressure | Rain* | Wind** | Luminosity | Snow |
|---|---|---|---|---|---|---|---|
| 1787820259 | 22.78° C | 52% | 1020.4 hPa | 0 mm | 1.34 m/s, 75° | 470 W/m² | - |
| 1787820196 | 22.78° C | 51% | 1020.6 hPa | 0 mm | 0.45 m/s, 45° | 469 W/m² | - |
| 1787820136 | 22.78° C | 50% | 1020.7 hPa | 0 mm | 1.34 m/s, 143° | 466 W/m² | - |
| 1787820076 | 22.78° C | 53% | 1020.7 hPa | 0 mm | 0.45 m/s, 31° | 464 W/m² | - |
| 1787820016 | 22.78° C | 52% | 1020.7 hPa | 0 mm | 1.34 m/s, 65° | 462 W/m² | - |
| 1787819956 | 22.78° C | 51% | 1020.8 hPa | 0 mm | 0.45 m/s, 82° | 459 W/m² | - |
| 1787819896 | 22.78° C | 52% | 1020.6 hPa | 0 mm | 0.89 m/s, 83° | 457 W/m² | - |
| 1787819836 | 22.78° C | 52% | 1020.7 hPa | 0 mm | 0 m/s | 455 W/m² | - |
| 1787819776 | 22.22° C | 53% | 1020.6 hPa | 0 mm | 0.89 m/s, 36° | 452 W/m² | - |
| 1787819716 | 22.22° C | 51% | 1020.7 hPa | 0 mm | 1.34 m/s, 50° | 451 W/m² | - |
| 1787819656 | 22.22° C | 52% | 1020.8 hPa | 0 mm | 0.45 m/s, 60° | 450 W/m² | - |
| 1787819596 | 22.22° C | 51% | 1020.8 hPa | 0 mm | 1.34 m/s, 36° | 446 W/m² | - |
| 1787819536 | 22.22° C | 52% | 1020.7 hPa | 0 mm | 0.89 m/s, 112° | 444 W/m² | - |
| 1787819476 | 22.22° C | 52% | 1020.9 hPa | 0 mm | 0.89 m/s, 173° | 443 W/m² | - |
| 1787819416 | 22.22° C | 54% | 1020.7 hPa | 0 mm | 0.89 m/s, 47° | 440 W/m² | - |
| 1787819356 | 22.22° C | 54% | 1020.8 hPa | 0 mm | 0.45 m/s, 26° | 438 W/m² | - |
| 1787819296 | 21.67° C | 55% | 1020.7 hPa | 0 mm | 0.89 m/s, 35° | 436 W/m² | - |
| 1787819237 | 21.67° C | 54% | 1020.8 hPa | 0 mm | 0.89 m/s, 30° | 433 W/m² | - |
| 1787819176 | 21.67° C | 53% | 1020.7 hPa | 0 mm | 1.79 m/s, 29° | 431 W/m² | - |
| 1787819117 | 21.67° C | 54% | 1020.7 hPa | 0 mm | 0.89 m/s, 128° | 429 W/m² | - |
| 1787819056 | 21.67° C | 53% | 1020.5 hPa | 0 mm | 0.89 m/s, 18° | 426 W/m² | - |
| 1787818996 | 21.67° C | 53% | 1020.5 hPa | 0 mm | 1.79 m/s, 59° | 425 W/m² | - |
| 1787818937 | 21.67° C | 54% | 1020.7 hPa | 0 mm | 0.45 m/s, 38° | 421 W/m² | - |
| 1787818876 | 21.67° C | 53% | 1020.7 hPa | 0 mm | 2.68 m/s, 45° | 419 W/m² | - |
| 1787818816 | 21.67° C | 54% | 1020.6 hPa | 0 mm | 1.34 m/s, 59° | 416 W/m² | - |
* Rain latest hour (hover to see other rain measurements)
** Current wind speed in m/s (hover to see current wind gust speed)